[[{"header":{"parameterUnit":"m.s-1","parameterCategory":1,"la1":30.2991,"la2":30.254,"lo1":-89.0895,"lo2":-89.0444,"dy":0.0017,"dx":0.0017,"nx":28,"ny":28,"refTime":"2024-12-09T03:00:00:Z","depth":0,"parameterNumber":2,"parameterNumberName":"U-component_of_WINDS"},"data":[0,0,0,0,0,0,0,0,0,0,0,0,0,0,0,0,0,0,0,0,0,0,0,0,0,0,0,0,0,0,0,0,0,0,0,0,0,0,0,0,0,0,0,0,0,0,0,0,0,0,0,0,0,0,0,0,0,0,2.2149,2.2148,0,2.2126,2.2126,2.2126,2.2068,2.2067,2.2066,2.2065,2.204,2.2041,2.2041,0,0,0,0,0,0,0,0,0,0,0,0,0,2.2142,2.2142,2.2149,2.2148,2.2148,2.2126,2.2126,2.2126,2.2069,2.2067,2.2066,2.2064,2.204,2.2041,2.2041,0,0,0,0,0,0,0,0,0,0,0,0,0,2.2135,2.2142,2.2149,2.2117,2.2114,2.2127,2.2126,2.2126,2.2069,2.2067,2.2065,2.2064,2.204,2.2041,2.2042,2.2082,0,0,2.2044,2.2044,0,0,0,0,0,0,0,0,2.2135,2.2135,2.2122,2.2119,2.2116,2.2098,2.2115,2.2111,2.2069,2.2086,2.2065,2.2063,2.2061,2.206,2.206,2.2081,2.208,2.2044,2.2044,2.2045,2.2045,0,0,0,0,0,0,0,2.2136,2.2135,2.214,2.2122,2.2118,2.2104,2.2101,2.2114,2.2084,2.2084,2.208,2.2079,2.2059,2.2059,2.2059,2.208,2.2044,2.2044,2.2045,2.2045,2.2136,2.2138,0,0,0,0,0,0,2.2141,2.2136,2.214,2.2139,2.2121,2.2106,2.2102,2.2106,2.2084,2.2079,2.208,2.2076,2.2059,2.2058,2.2058,2.2105,2.2045,2.2045,2.2046,2.2134,2.2136,2.2138,0,0,0,0,0,0,2.2141,2.2142,2.2141,2.2137,2.2135,2.2108,2.2112,2.2106,2.2106,2.208,2.2075,2.2086,2.2057,2.2057,2.2077,2.2104,2.2046,2.2046,2.2131,2.2134,2.2137,2.22,0,0,0,0,0,0,2.2141,2.2142,2.2157,2.2137,2.2136,2.2162,2.2114,2.2107,2.2108,2.2102,2.2084,2.2079,2.2056,2.2076,2.2078,2.2103,2.2047,2.2129,2.2133,2.2136,2.2196,2.2205,2.2213,0,0,0,0,0,2.2141,2.2175,2.2158,2.2159,2.2154,2.2163,2.2162,2.2135,2.211,2.2125,2.2109,2.208,2.2101,2.2079,2.208,2.2106,2.2127,2.2132,2.2136,2.2192,2.2203,2.2213,0,0,0,0,0,0,2.2197,2.2172,2.2153,2.2182,2.2175,2.2153,2.2172,2.2148,2.2147,2.2142,2.2108,2.2104,2.213,2.212,2.2097,2.2146,2.2109,2.2114,2.2151,2.2162,2.217,2.2172,2.2047,0,0,0,0,0,2.2213,2.2223,2.22,2.2228,2.2226,2.22,2.2202,2.2182,2.2174,2.217,2.2155,2.2148,2.2153,2.2157,2.216,2.2194,2.219,2.2213,2.2221,2.2229,2.2233,2.2252,2.2263,2.2153,2.2153,2.2153,0,0,2.2246,2.2233,2.2241,2.2239,2.2231,2.2242,2.2197,2.221,2.2218,2.2172,2.2191,2.218,2.217,2.2198,2.221,2.219,2.2263,2.2234,2.224,2.2241,2.2258,2.2269,2.2278,2.2156,2.2155,2.2155,0,0,2.2312,2.2303,2.2326,2.232,2.231,2.2292,2.2298,2.2281,2.2272,2.2291,2.2257,2.2266,2.2274,2.2269,2.2267,2.2334,2.2307,2.2336,2.2381,2.24,2.2408,2.2416,2.244,2.245,2.234,2.234,2.234,0,2.2353,2.2369,2.234,2.2356,2.2356,2.2317,2.234,2.2335,2.2327,2.2328,2.2307,2.2319,2.2309,2.2336,2.2352,2.2352,2.2358,2.2337,2.2409,2.2417,2.2423,2.2446,2.2456,2.2344,2.2344,2.2343,2.2343,0,2.2421,2.2433,2.2452,2.2447,2.2449,2.2468,2.2443,2.2449,2.243,2.2415,2.2435,2.2422,2.2423,2.2428,2.2408,2.2453,2.2442,2.2416,2.2378,2.2438,2.2459,2.2468,2.2349,2.2348,2.2347,2.2346,0,0,2.252,2.25,2.2508,2.2505,2.2493,2.2501,2.2519,2.2521,2.2527,2.2523,2.2538,2.2547,2.2524,2.2522,2.2502,2.2518,2.2573,2.249,2.249,2.2507,2.2623,2.2643,2.2654,2.2556,2.2557,2.2559,2.2625,0,2.2582,2.2613,2.2589,2.2624,2.2635,2.2598,2.2614,2.2609,2.2596,2.2603,2.2588,2.2596,2.2564,2.2563,2.2578,2.2563,2.2596,2.2558,2.257,2.257,2.2574,2.2665,2.2686,2.2748,2.2633,2.2634,2.2635,0,2.2658,2.266,2.2696,2.2683,2.2687,2.2702,2.2702,2.271,2.2703,2.2692,2.2692,2.2668,2.2685,2.2649,2.2673,2.2648,2.2651,2.2645,2.2646,2.2646,2.2606,2.2668,2.2767,2.2777,2.2647,2.2646,2.2646,0,2.2728,2.2739,2.2762,2.2761,2.2746,2.2758,2.2752,2.2744,2.2747,2.2747,2.2749,2.2751,2.2753,2.2755,2.2732,2.2708,2.276,2.2721,2.2752,2.2753,2.2764,2.2764,2.2866,2.2766,2.2766,2.2766,2.2765,0,2.28,2.2824,2.2794,2.2808,2.2835,2.2807,2.2834,2.2824,2.2817,2.283,2.2798,2.281,2.2779,2.2788,2.277,2.2794,2.2794,2.2787,2.2782,2.279,2.2791,2.2791,2.2787,2.2768,2.2767,2.2767,2.2767,0,2.2882,2.2862,2.2886,2.2871,2.2868,2.2888,2.2875,2.2888,2.2874,2.289,2.2892,2.287,2.288,2.2857,2.2863,2.2851,2.2885,2.2872,2.2887,2.2884,2.2916,2.2914,2.3023,2.3036,2.2927,2.2928,2.2929,0,2.2929,2.2947,2.2935,2.2941,2.2938,2.2949,2.2952,2.2927,2.2932,2.2927,2.2941,2.2948,2.2952,2.2969,2.2953,2.2958,2.2946,2.2984,2.2946,2.2954,2.2947,2.2947,2.2949,2.2991,2.2993,2.2994,2.2995,0,2.3015,2.3006,2.3013,2.3017,2.3023,2.3025,2.3025,2.3032,2.3005,2.3012,2.3022,2.3026,2.3033,2.3041,2.3042,2.3036,2.3011,2.3007,2.3014,2.3023,2.3031,2.3028,2.2909,2.3004,2.3003,2.3003,2.3002,2.3002,2.3081,2.3097,2.3091,2.3101,2.3098,2.31,2.3112,2.3101,2.3109,2.3113,2.3097,2.3111,2.3106,2.3105,2.3102,2.3113,2.3095,2.3106,2.3109,2.3112,2.3118,2.303,2.3113,2.3112,2.3112,2.3112,2.3112,0,2.3167,2.3162,2.3172,2.3173,2.3181,2.3159,2.3158,2.3166,2.3179,2.3176,2.3182,2.3195,2.3202,2.3189,2.3194,2.3206,2.3195,2.3208,2.3207,2.3206,2.3132,2.3126,2.3217,2.3217,2.3217,2.3217,2.3217,2.3217,2.3212,2.3237,2.3227,2.3251,2.3246,2.3261,2.3263,2.3264,2.3262,2.3278,2.3285,2.3276,2.3269,2.3274,2.3281,2.3277,2.3281,2.3298,2.329,2.3221,2.3211,2.3201,2.3195,2.3299,2.3299,2.3363,2.3364,2.3364]},{"header":{"parameterUnit":"m.s-1","parameterCategory":1,"la1":30.2991,"la2":30.254,"lo1":-89.0895,"lo2":-89.0444,"dy":0.0017,"dx":0.0017,"nx":28,"ny":28,"refTime":"2024-12-09T03:00:00:Z","depth":0,"parameterNumber":3,"parameterNumberName":"V-component_of_WINDS"},"data":[0,0,0,0,0,0,0,0,0,0,0,0,0,0,0,0,0,0,0,0,0,0,0,0,0,0,0,0,0,0,0,0,0,0,0,0,0,0,0,0,0,0,0,0,0,0,0,0,0,0,0,0,0,0,0,0,0,0,3.862,3.8623,0,3.8932,3.8936,3.8939,3.8978,3.8975,3.8972,3.897,3.929,3.9301,3.9312,0,0,0,0,0,0,0,0,0,0,0,0,0,3.8059,3.8069,3.8619,3.8623,3.8627,3.8931,3.8936,3.894,3.8979,3.8975,3.8972,3.8968,3.9286,3.9299,3.9313,0,0,0,0,0,0,0,0,0,0,0,0,0,3.833,3.8072,3.8619,3.8683,3.8692,3.8931,3.8936,3.8941,3.898,3.8975,3.8971,3.8966,3.9281,3.9298,3.9315,3.951,0,0,3.9367,3.9374,0,0,0,0,0,0,0,0,3.8315,3.835,3.867,3.8679,3.869,3.8912,3.8856,3.9132,3.8981,3.8871,3.8969,3.8964,3.9168,3.9194,3.9262,3.9525,3.9539,3.9368,3.9378,3.9386,3.9391,0,0,0,0,0,0,0,3.8296,3.8337,3.8743,3.8675,3.8687,3.8698,3.8731,3.8908,3.9041,3.888,3.8883,3.892,3.9172,3.9246,3.927,3.9544,3.9368,3.9383,3.9393,3.94,3.9987,3.9992,0,0,0,0,0,0,3.8265,3.8321,3.8733,3.8753,3.8487,3.8711,3.8749,3.8845,3.9039,3.9064,3.8923,3.8921,3.9219,3.925,3.9281,3.9526,3.9386,3.9402,3.9411,3.9981,3.9988,3.9994,0,0,0,0,0,0,3.8253,3.8301,3.8721,3.8538,3.8592,3.8726,3.8834,3.8854,3.8927,3.9072,3.9096,3.8974,3.9217,3.9257,3.9454,3.9537,3.9409,3.9425,3.9975,3.9983,3.9991,4.0015,0,0,0,0,0,0,3.8236,3.8297,3.8372,3.854,3.8602,3.8887,3.8839,3.8863,3.8956,3.8956,3.9126,3.915,3.9216,3.9428,3.9471,3.9559,3.9438,3.9968,3.9979,3.9988,4.0007,4.0022,4.0036,0,0,0,0,0,3.8216,3.8365,3.8375,3.8425,3.8698,3.8892,3.8928,3.9001,3.8963,3.904,3.9134,3.9144,3.9521,3.9448,3.9496,3.959,3.9963,3.9976,3.9987,4.0,4.0019,4.0035,0,0,0,0,0,0,3.8203,3.8388,3.8401,3.8609,3.8735,3.8898,3.8998,3.9018,3.9158,3.9151,3.9236,3.9274,3.9468,3.9548,3.9464,3.9792,3.9739,3.9761,3.9732,3.9751,3.9765,3.9743,3.9452,0,0,0,0,0,3.8224,3.8366,3.852,3.8688,3.8751,3.8863,3.895,3.8996,3.913,3.9183,3.9291,3.942,3.9568,3.9664,3.9807,4.0018,4.0057,4.0107,4.0121,4.0132,4.0151,4.0272,4.0297,4.0033,4.0033,4.0033,0,0,3.827,3.8388,3.8472,3.8689,3.8791,3.8937,3.8908,3.9062,3.9172,3.9207,3.94,3.9483,3.9633,3.9839,3.9934,3.9912,4.0232,4.0148,4.0155,4.0169,4.0287,4.0312,4.0334,4.0042,4.004,4.0039,0,0,3.8427,3.853,3.8683,3.8787,3.8944,3.9018,3.9055,3.9217,3.9274,3.9469,3.9499,3.963,3.9882,3.9989,4.0076,4.0277,4.0293,4.0321,4.0397,4.0514,4.0535,4.0553,4.0628,4.0653,4.0339,4.0339,4.0339,0,3.8464,3.8685,3.8759,3.8915,3.901,3.9049,3.9206,3.9303,3.9498,3.9563,3.9535,3.9855,3.9958,4.019,4.024,4.0308,4.0354,4.0303,4.0525,4.0545,4.0564,4.0636,4.0663,4.0342,4.0342,4.0341,4.0341,0,3.8724,3.8876,3.8981,3.917,3.9277,3.9432,3.9532,3.9631,3.9668,3.9745,3.9945,4.0071,4.0242,4.03,4.0337,4.0539,4.0521,4.0508,4.0457,4.059,4.066,4.0688,4.0346,4.0345,4.0344,4.0343,0,0,3.8882,3.9112,3.9149,3.9237,3.9413,3.9533,3.969,3.9859,3.9944,4.0077,4.0213,4.0426,4.0416,4.0515,4.0565,4.0667,4.0821,4.0642,4.0647,4.0673,4.1055,4.1066,4.1096,4.0832,4.0838,4.0842,4.1044,0,3.9062,3.9345,3.9418,3.9658,3.9802,3.9841,3.9979,4.0102,4.018,4.0313,4.0398,4.0549,4.0523,4.0584,4.0686,4.0781,4.09,4.0767,4.0961,4.0967,4.0925,4.1132,4.1144,4.1328,4.1071,4.1075,4.1079,0,3.931,3.9451,3.9706,3.9867,3.9929,4.0052,4.0214,4.034,4.0482,4.0531,4.0642,4.0683,4.085,4.0788,4.1021,4.0929,4.1013,4.1071,4.108,4.1104,4.1033,4.1163,4.1388,4.1416,4.1122,4.1118,4.1115,0,3.9404,3.9657,3.9843,3.9916,4.0107,4.0193,4.0276,4.0413,4.0511,4.0652,4.0717,4.0874,4.0962,4.1084,4.1166,4.1113,4.1393,4.1338,4.1441,4.1439,4.15,4.1495,4.1743,4.1549,4.1548,4.1548,4.1547,0,3.96,3.9755,3.9888,4.0003,4.0179,4.0262,4.0434,4.0518,4.064,4.0773,4.0816,4.094,4.104,4.1178,4.1243,4.1428,4.1466,4.1512,4.1528,4.151,4.1504,4.1568,4.1558,4.1555,4.1554,4.1552,4.1551,0,3.9735,3.983,4.0036,4.0201,4.0246,4.0369,4.051,4.0624,4.0702,4.087,4.0914,4.1037,4.1202,4.1296,4.1503,4.1547,4.1753,4.1762,4.1706,4.1714,4.1812,4.1803,4.2112,4.2158,4.193,4.1932,4.1933,0,3.9855,3.9976,4.0154,4.0246,4.0331,4.0479,4.058,4.0665,4.0768,4.094,4.1034,4.1201,4.134,4.1602,4.171,4.1869,4.1884,4.1981,4.1908,4.1887,4.1889,4.1882,4.1896,4.1994,4.1996,4.1998,4.1999,0,4.0058,4.01,4.0243,4.0404,4.0522,4.0653,4.0782,4.0855,4.0963,4.1076,4.1246,4.1354,4.1566,4.1733,4.1901,4.1988,4.2014,4.2021,4.2054,4.2039,4.2003,4.2027,4.1744,4.2014,4.2013,4.2012,4.2011,4.201,4.0192,4.0303,4.0446,4.0605,4.0712,4.0832,4.0948,4.1042,4.1185,4.1365,4.1407,4.1586,4.1727,4.1956,4.2047,4.2189,4.2172,4.2218,4.2231,4.2242,4.2247,4.1977,4.2219,4.2219,4.2219,4.2219,4.2218,0,4.0401,4.0496,4.0641,4.0822,4.0947,4.0959,4.1103,4.1208,4.1365,4.1494,4.163,4.1827,4.1989,4.2111,4.2277,4.2367,4.2383,4.2409,4.2404,4.2425,4.2251,4.2208,4.2393,4.2393,4.2393,4.2393,4.2393,4.2393,4.0525,4.0714,4.0773,4.1015,4.1109,4.1286,4.1368,4.148,4.1584,4.1801,4.1937,4.2015,4.2142,4.2318,4.2468,4.25,4.2561,4.2585,4.2619,4.2455,4.2436,4.2418,4.2378,4.2597,4.2597,4.2781,4.2783,4.2784]}]]